| time (UTC) | temp F | wind direction | speed MPH | gust MPH | rain 1hr in | rain 24hr in | rain mn in | humidity % | barometer mb |
| 20260510114024 | 83 | 135 | 3.0 | 0.0 | 0.00 | 0.38 | 0.00 | 28 | 1007.7 |
| 20260510112523 | 84 | 112 | 4.0 | 0.0 | 0.00 | 0.38 | 0.00 | 27 | 1007.9 |
| 20260510111023 | 90 | 112 | 9.0 | 0.0 | 0.00 | 0.38 | 0.00 | 25 | 1008.2 |
| 20260510105523 | 89 | 157 | 0.0 | 0.0 | 0.00 | 0.38 | 0.00 | 27 | 1008.2 |
| 20260510104023 | 87 | 135 | 2.0 | 0.0 | 0.00 | 0.38 | 0.00 | 28 | 1008.5 |
| 20260510102523 | 84 | 90 | 6.0 | 0.0 | 0.00 | 0.38 | 0.00 | 29 | 1008.5 |
| 20260510101023 | 84 | 135 | 2.0 | 0.0 | 0.00 | 0.38 | 0.00 | 29 | 1008.7 |
| 20260510095523 | 80 | 22 | 0.0 | 0.0 | 0.02 | 0.38 | 0.00 | 32 | 1009.0 |
| 20260510094023 | 78 | 157 | 0.0 | 0.0 | 0.08 | 0.38 | 0.00 | 33 | 1009.0 |
| 20260510092523 | 77 | 112 | 0.0 | 0.0 | 0.38 | 0.38 | 0.00 | 33 | 1009.0 |
| 20260510091023 | 77 | 135 | 0.0 | 0.0 | 0.38 | 0.38 | 0.00 | 33 | 1009.2 |
| 20260510085523 | 76 | 112 | 5.0 | 0.0 | 0.36 | 0.36 | 0.00 | 33 | 1009.2 |
| 20260510084024 | 79 | 112 | 0.0 | 0.0 | 0.30 | 0.30 | 0.00 | 32 | 1009.2 |
| 20260510082523 | 78 | 90 | 0.0 | 0.0 | 0.00 | 0.00 | 0.00 | 33 | 1009.4 |
| 20260510081023 | 73 | 135 | 0.0 | 0.0 | 0.00 | 0.00 | 0.00 | 35 | 1009.2 |
| 20260510075523 | 65 | 112 | 3.0 | 0.0 | 0.00 | 0.00 | 0.00 | 38 | 1009.4 |
| 20260510074023 | 63 | 135 | 0.0 | 0.0 | 0.00 | 0.00 | 0.00 | 38 | 1009.4 |
| 20260510072523 | 61 | 112 | 4.0 | 0.0 | 0.00 | 0.00 | 0.00 | 38 | 1009.2 |
| 20260510071023 | 58 | 112 | 0.0 | 0.0 | 0.00 | 0.00 | 0.00 | 38 | 1009.5 |
| 20260510065523 | 57 | 112 | 0.0 | 0.0 | 0.00 | 0.00 | 0.00 | 38 | 1009.7 |
| 20260510064023 | 55 | 135 | 4.0 | 0.0 | 0.00 | 0.00 | 0.00 | 36 | 1009.7 |
| 20260510062523 | 54 | 135 | 0.0 | 0.0 | 0.00 | 0.00 | 0.00 | 33 | 1009.7 |
| 20260510061023 | 53 | 135 | 3.0 | 0.0 | 0.00 | 0.00 | 0.00 | 30 | 1009.7 |
| 20260510055523 | 51 | 135 | 0.0 | 0.0 | 0.00 | 0.00 | 0.00 | 28 | 1009.7 |
| 20260510054023 | 50 | 135 | 0.0 | 0.0 | 0.00 | 0.00 | 0.00 | 27 | 1009.9 |
| 20260510052523 | 49 | 135 | 0.0 | 0.0 | 0.00 | 0.00 | 0.00 | 24 | 1010.0 |
| 20260510051023 | 48 | 135 | 0.0 | 0.0 | 0.00 | 0.00 | 0.00 | 23 | 1010.0 |
| 20260510045523 | 46 | 135 | 0.0 | 0.0 | 0.00 | 0.00 | 0.00 | 25 | 1010.0 |
| 20260510044023 | 45 | 135 | 0.0 | 0.0 | 0.00 | 0.00 | 0.00 | 28 | 1010.2 |
| 20260510042523 | 44 | 135 | 0.0 | 0.0 | 0.00 | 0.00 | 0.00 | 30 | 1010.5 |
| 20260510041023 | 44 | 135 | 0.0 | 0.0 | 0.00 | 0.00 | 0.00 | 32 | 1010.5 |
| 20260510035523 | 43 | 135 | 0.0 | 0.0 | 0.00 | 0.00 | 0.00 | 35 | 1010.5 |
| 20260510034023 | 44 | 135 | 0.0 | 0.0 | 0.00 | 0.00 | 0.00 | 36 | 1010.7 |
| 20260510032523 | 44 | 135 | 0.0 | 0.0 | 0.00 | 0.00 | 0.00 | 37 | 1010.7 |
| 20260510031023 | 44 | 135 | 0.0 | 0.0 | 0.00 | 0.00 | 0.00 | 39 | 1010.9 |
| 20260510025523 | 45 | 135 | 0.0 | 0.0 | 0.00 | 0.00 | 0.00 | 39 | 1010.9 |
| 20260510024023 | 46 | 135 | 0.0 | 0.0 | 0.00 | 0.00 | 0.00 | 40 | 1010.9 |
| 20260510022523 | 46 | 135 | 0.0 | 0.0 | 0.00 | 0.00 | 0.00 | 42 | 1011.0 |
| 20260510021023 | 47 | 135 | 0.0 | 0.0 | 0.00 | 0.00 | 0.00 | 42 | 1010.9 |
| 20260510015523 | 47 | 135 | 0.0 | 0.0 | 0.00 | 0.00 | 0.00 | 42 | 1011.0 |
| 20260510014023 | 48 | 135 | 0.0 | 0.0 | 0.00 | 0.00 | 0.00 | 42 | 1011.0 |
| 20260510012523 | 48 | 135 | 0.0 | 0.0 | 0.00 | 0.00 | 0.00 | 42 | 1011.2 |
| 20260510011023 | 48 | 135 | 2.0 | 0.0 | 0.00 | 0.00 | 0.00 | 43 | 1011.2 |
| 20260510005523 | 48 | 135 | 0.0 | 0.0 | 0.00 | 0.00 | 0.00 | 44 | 1011.2 |
| 20260510004023 | 48 | 135 | 0.0 | 0.0 | 0.00 | 0.00 | 0.00 | 45 | 1011.2 |
| 20260510002523 | 48 | 135 | 0.0 | 0.0 | 0.00 | 0.00 | 0.00 | 46 | 1011.2 |
| 20260510001023 | 49 | 135 | 0.0 | 0.0 | 0.00 | 0.00 | 0.00 | 46 | 1011.4 |
| 20260509235523 | 50 | 135 | 0.0 | 0.0 | 0.00 | 0.00 | 0.00 | 46 | 1011.5 |
| 20260509234023 | 50 | 135 | 0.0 | 0.0 | 0.00 | 0.00 | 0.00 | 46 | 1011.7 |
| 20260509232523 | 50 | 135 | 0.0 | 0.0 | 0.00 | 0.00 | 0.00 | 47 | 1011.9 |
| 20260509231023 | 51 | 135 | 0.0 | 0.0 | 0.00 | 0.00 | 0.00 | 48 | 1012.0 |
| 20260509225523 | 51 | 135 | 0.0 | 0.0 | 0.00 | 0.00 | 0.00 | 48 | 1012.0 |
| 20260509224023 | 52 | 112 | 0.0 | 0.0 | 0.00 | 0.00 | 0.00 | 48 | 1012.0 |
| 20260509222523 | 54 | 112 | 0.0 | 0.0 | 0.00 | 0.00 | 0.00 | 47 | 1012.2 |
| 20260509221023 | 54 | 135 | 2.0 | 0.0 | 0.00 | 0.00 | 0.00 | 47 | 1012.0 |
| 20260509215523 | 53 | 112 | 0.0 | 0.0 | 0.00 | 0.00 | 0.00 | 48 | 1012.0 |
| 20260509214023 | 53 | 135 | 0.0 | 0.0 | 0.00 | 0.00 | 0.00 | 49 | 1012.2 |
| 20260509212524 | 54 | 135 | 0.0 | 0.0 | 0.00 | 0.00 | 0.00 | 48 | 1012.2 |
| 20260509211023 | 55 | 135 | 0.0 | 0.0 | 0.00 | 0.00 | 0.00 | 48 | 1012.2 |
| 20260509205523 | 55 | 135 | 1.0 | 0.0 | 0.00 | 0.00 | 0.00 | 48 | 1012.5 |
| 20260509204023 | 55 | 112 | 0.0 | 0.0 | 0.00 | 0.00 | 0.00 | 48 | 1012.2 |
| 20260509202523 | 56 | 112 | 0.0 | 0.0 | 0.00 | 0.00 | 0.00 | 48 | 1012.2 |
| 20260509201023 | 57 | 112 | 0.0 | 0.0 | 0.00 | 0.00 | 0.00 | 48 | 1012.5 |
| 20260509195523 | 57 | 112 | 0.0 | 0.0 | 0.00 | 0.00 | 0.00 | 47 | 1012.5 |
| 20260509194023 | 58 | 112 | 0.0 | 0.0 | 0.00 | 0.00 | 0.00 | 46 | 1012.5 |
| 20260509192523 | 60 | 112 | 0.0 | 0.0 | 0.00 | 0.00 | 0.00 | 45 | 1012.5 |
| 20260509191023 | 61 | 112 | 0.0 | 0.0 | 0.00 | 0.00 | 0.00 | 44 | 1012.2 |
| 20260509185523 | 62 | 135 | 0.0 | 0.0 | 0.00 | 0.00 | 0.00 | 43 | 1012.2 |
| 20260509184023 | 63 | 135 | 0.0 | 0.0 | 0.00 | 0.00 | 0.00 | 42 | 1012.2 |
| 20260509182523 | 65 | 112 | 0.0 | 0.0 | 0.00 | 0.00 | 0.00 | 40 | 1012.0 |
| 20260509181023 | 66 | 135 | 3.0 | 0.0 | 0.00 | 0.00 | 0.00 | 38 | 1012.2 |
| 20260509175523 | 69 | 135 | 0.0 | 0.0 | 0.00 | 0.00 | 0.00 | 36 | 1012.2 |
| 20260509174023 | 73 | 135 | 5.0 | 0.0 | 0.00 | 0.00 | 0.00 | 32 | 1012.0 |
| 20260509172523 | 84 | 112 | 6.0 | 0.0 | 0.00 | 0.00 | 0.00 | 26 | 1012.2 |
| 20260509171023 | 88 | 135 | 11.0 | 0.0 | 0.00 | 0.00 | 0.00 | 24 | 1012.0 |
| 20260509165523 | 89 | 157 | 4.0 | 0.0 | 0.00 | 0.00 | 0.00 | 24 | 1012.0 |
| 20260509164023 | 87 | 112 | 2.0 | 0.0 | 0.00 | 0.00 | 0.00 | 24 | 1012.0 |
| 20260509162523 | 86 | 112 | 8.0 | 0.0 | 0.00 | 0.00 | 0.00 | 24 | 1012.2 |
| 20260509161023 | 90 | 135 | 0.0 | 0.0 | 0.00 | 0.00 | 0.00 | 22 | 1012.2 |
| 20260509155523 | 87 | 112 | 1.0 | 0.0 | 0.00 | 0.00 | 0.00 | 23 | 1012.5 |
| 20260509154023 | 95 | 112 | 6.0 | 0.0 | 0.00 | 0.00 | 0.00 | 20 | 1012.7 |
| 20260509152523 | 96 | 112 | 0.0 | 0.0 | 0.00 | 0.00 | 0.00 | 20 | 1012.7 |
| 20260509151023 | 95 | 0 | 0.0 | 0.0 | 0.00 | 0.00 | 0.00 | 20 | 1012.7 |
| 20260509145523 | 93 | 135 | 2.0 | 0.0 | 0.00 | 0.00 | 0.00 | 21 | 1013.0 |
| 20260509144023 | 91 | 337 | 3.0 | 0.0 | 0.00 | 0.00 | 0.00 | 22 | 1013.0 |
| 20260509142523 | 91 | 112 | 5.0 | 0.0 | 0.00 | 0.00 | 0.00 | 23 | 1013.0 |
| 20260509141022 | 89 | 225 | 6.0 | 0.0 | 0.00 | 0.00 | 0.00 | 24 | 1013.2 |
| 20260509135522 | 85 | 157 | 0.0 | 0.0 | 0.00 | 0.00 | 0.00 | 26 | 1013.4 |
| 20260509134022 | 85 | 45 | 0.0 | 0.0 | 0.00 | 0.00 | 0.00 | 26 | 1013.5 |
| 20260509132523 | 84 | 112 | 2.0 | 0.0 | 0.00 | 0.00 | 0.00 | 27 | 1013.7 |
| 20260509131022 | 79 | 292 | 2.0 | 0.0 | 0.00 | 0.00 | 0.00 | 29 | 1013.9 |
| 20260509125523 | 76 | 0 | 0.0 | 0.0 | 0.00 | 0.00 | 0.00 | 31 | 1014.0 |
| 20260509124023 | 79 | 22 | 3.0 | 0.0 | 0.00 | 0.00 | 0.00 | 29 | 1014.2 |
| 20260509122522 | 79 | 0 | 0.0 | 0.0 | 0.00 | 0.00 | 0.00 | 31 | 1014.2 |
| 20260509121022 | 81 | 0 | 0.0 | 0.0 | 0.00 | 0.00 | 0.00 | 28 | 1014.5 |
| 20260509115522 | 84 | 0 | 5.0 | 0.0 | 0.00 | 0.00 | 0.00 | 27 | 1014.4 |